Starlink 11589

operational
NORAD ID: 63311 Int'l Des: 2025-057 Owner: SPXS Country: US Constellation: starlink
LEOCIRCULAR

Starlink 11589について

説明を読み込み中...

リアルタイム位置

3D地球を読み込み中...

次回通過

高度履歴

Altitude vs Time

uPlot chart will show altitude changes over time

軌道要素

1 63311U 25057E 25259.34921702 .00274421 00000-0 20674-2 0 9995
2 63311 43.0009 235.8240 0003147 280.2712 79.7801 15.70894987 29756
Epoch: Sep 16, 2025 • Age: 13 hours

現在のステータス

高度 359.7 km
速度 7.70 km/s
衛星直下点 38.26°N, 43.19°E
打ち上げ日 Mar 18, 2025
運用期間 0.4 years
タイプ internet

技術仕様

分類 Payload
質量 960.00 kg
乾燥質量 910.00 kg
総質量 960.00 kg
長さ 0.30 m
直径 4.10 m
スパン 29.00 m
形状 Box + pan
製造者 SPXS
バスタイプ Starlink V2MD
フェーズステータス In Orbit
所有者/国 SPXS/US

大規模コンステレーション

Loading constellations...